STARLINK-4182

decayed
NORAD ID: 53281 Int'l Des: 2022-086 Owner: SPXS Country: US Constellation: starlink
LEOCIRCULAR
グループ

STARLINK-4182について

説明を読み込み中...

高度履歴

Altitude vs Time

uPlot chart will show altitude changes over time

軌道要素

1 53281U 22086AR 24361.45395924 .17527952 12420-4 29211-3 0 9993
2 53281 53.1954 330.7076 0010686 224.5660 225.7301 16.47231836135156
Epoch: Dec 26, 2024 • Age: 6350 hours

現在のステータス

Position data unavailable
打ち上げ日 Jul 24, 2022
運用期間 3.1 years
落下予定日 Dec 26, 2024
タイプ internet

技術仕様

分類 Payload
質量 297.00 kg
乾燥質量 275.00 kg
総質量 297.00 kg
長さ 0.20 m
直径 2.80 m
スパン 9.00 m
形状 Box + pan
製造者 SPXS
バスタイプ Starlink
フェーズステータス Unknown Transfer Status
所有者/国 SPXS/US

大規模コンステレーション

Loading constellations...